Retour au catalogue

COSMOS 1308

ActifMilitairePO
NORAD 12835·PAYLOAD·🇷🇺 Russia

Lancé Sep 18, 1981 depuis Plesetsk Cosmodrome

Loading…

Prochains Passages (prochaines 24 heures)

TLE

FraisSource: Space-Track

Époque: Sep 14, 2026, 14:11 UTC

1 12835U 81091A   26257.59147242  .00000028  00000-0  12832-4 0  9994
2 12835  82.9164 108.1189 0026919 203.2886 173.8864 13.75657841257856

Suivez COSMOS 1308 en temps réel avec AllMySat

Download on the App Store